Regional Weather Roundup
Issued by NWS Raleigh/Durham, NC

Home | Current Version | Previous Version | Text Only | Print | Product List | Glossary On
Versions: 1 2 3 4 5 6 7 8 9 10 11 12 13 14 15 16 17 18 19 20 21 22 23 24 25 26 27 28 29 30 31 32 33 34 35 36 37 38 39 40 41 42 43 44 45 46 47 48 49 50
575
ASUS42 KRAH 092010
RWRRAH
NORTH CAROLINA WEATHER ROUNDUP
NATIONAL WEATHER SERVICE RALEIGH NC
300 PM EST FRI DEC 09 2016

NOTE: "FAIR" INDICATES FEW OR NO CLOUDS BELOW 12,000 FEET WITH NO
SIGNIFICANT WEATHER AND/OR OBSTRUCTIONS TO VISIBILITY.

NCZ001-053-055-056-065-067-092100-
WESTERN NORTH CAROLINA

CITY           SKY/WX    TMP DP  RH WIND       PRES   REMARKS
ASHEVILLE      SUNNY     33  12  41 N15G21    30.36S WCI  23
JEFFERSON      SUNNY     23   9  53 NW12G20   30.29R WCI  12
MORGANTON      SUNNY     40  12  32 N7        30.42R WCI  35
HICKORY        SUNNY     39  10  30 NW9       30.37R WCI  33
RUTHERFORDTON  SUNNY     43  15  32 CALM      30.39R
MOUNT AIRY     SUNNY     37  13  36 NW9       30.39R WCI  31
BOONE          SUNNY     25  11  54 NW16G22   30.29S WCI  13
$$

NCZ021-022-025-041-071-084-088-092100-
CENTRAL NORTH CAROLINA

CITY           SKY/WX    TMP DP  RH WIND       PRES   REMARKS
CHARLOTTE      SUNNY     44  14  29 NW9       30.39R
GREENSBORO     MOSUNNY   40  14  34 N10       30.36R WCI  33
WINSTON-SALEM  SUNNY     39   9  29 N9        30.39R WCI  33
RALEIGH-DURHAM SUNNY     41  12  30 VRB6      30.38S
FORT BRAGG     SUNNY     44  15  31 NW13      30.36S
FAYETTEVILLE   SUNNY     44  17  33 N14G21    30.37R
BURLINGTON     SUNNY     40  13  33 W12       30.38R WCI  33
LAURINBURG     SUNNY     45  17  32 N9        30.39R
$$

NCZ011-015-027-028-043-044-047-080-103-092100-
NORTHEASTERN NORTH CAROLINA

CITY           SKY/WX    TMP DP  RH WIND       PRES   REMARKS
ROCKY MT-WILSO SUNNY     41  17  38 NW7       30.37R
GREENVILLE     SUNNY     41  18  38 NW6       30.36R
WASHINGTON     SUNNY     42  16  35 NW8       30.36R
ELIZABETH CITY SUNNY     42  17  36 W12       30.33R
MANTEO         MOSUNNY   41  22  46 N9        30.33S
CAPE HATTERAS  SUNNY     43  23  45 NW9       30.32S
$$

NCZ078-087-090-091-093-098-101-092100-
SOUTHEASTERN NORTH CAROLINA

CITY           SKY/WX    TMP DP  RH WIND       PRES   REMARKS
LUMBERTON      SUNNY     45  20  36 N12       30.37R
GOLDSBORO      SUNNY     42  16  34 NW12      30.34S
KINSTON        SUNNY     41  18  38 N13       30.36R
KENANSVILLE    SUNNY     43  19  39 NW10      30.36S
NEW BERN       SUNNY     43  20  39 NW10      30.36R
CHERRY POINT   SUNNY     45  20  36 N16       30.35R
BEAUFORT       SUNNY     45  22  40 N13       30.33S
JACKSONVILLE   SUNNY     44  19  36 NW10      30.34S
WILMINGTON     SUNNY     45  20  36 NW9       30.35S
$$





USA.gov is the U.S. government's official web portal to all federal, state and local government web resources and services.